Change the Weather History Date:

Monday, May 20, 2013

  Actual Average (KFFM) Record (KFFM)
Temperature  
Mean Temperature 58 °F -  
Max Temperature 64 °F 70 °F 91 °F (1992)
Min Temperature 53 °F 46 °F 30 °F (1969)
Degree Days  
Heating Degree Days 6    
Growing Degree Days 8 (Base 50)    
Moisture  
Dew Point 55 °F    
Average Humidity 88    
Maximum Humidity 94    
Minimum Humidity 73    
Precipitation  
Precipitation 0.00 in - - ()
Sea Level Pressure  
Sea Level Pressure 29.47 in    
Wind  
Wind Speed 8 mph (East)    
Max Wind Speed 16 mph    
Max Gust Speed 22 mph    
Visibility 8 miles    
Events      
Averages and records for this station are not official NWS values.
T = Trace of Precipitation, MM = Missing Value Source: NWS Daily Summary

Daily Weather History Graph

Daily Weather History Graph

Search for Another Location

Airport or City:

Trip Planner

Search our weather history database for the weather conditions in past years. The results will help you decide how hot, cold, wet, or windy it might be!

Date:

Astronomy

May. 20, 2013 Rise Set
Actual Time 5:47 AM CDT 8:58 PM CDT
Civil Twilight 5:11 AM CDT 9:35 PM CDT
Nautical Twilight 4:24 AM CDT 10:22 PM CDT
Astronomical Twilight 3:27 AM CDT 11:20 PM CDT
Moon 3:52 PM CDT (5/20) 3:00 AM CDT (5/20)
Length of Visible Light 16h 23m
Length of Day
15h 11m
Waxing Gibbous, 75% of the Moon is Illuminated
May 20
Waxing Gibbous
May 24
Full
May 31
Last Quarter
Jun 8
New
Jun 16
First Quarter

Hourly Weather History & Observations

Time (CDT) Temp. Dew Point Humidity Pressure Visibility Wind Dir Wind Speed Gust Speed Precip Events Conditions
12:15 AM 62.6 °F 59.0 °F 88% 29.56 in 10.0 mi East 8.1 mph - N/A   Overcast
12:35 AM 62.6 °F 59.0 °F 88% 29.56 in 10.0 mi East 12.7 mph - N/A   Overcast
12:55 AM 60.8 °F 57.2 °F 88% 29.55 in 10.0 mi East 16.1 mph 21.9 mph N/A   Overcast
1:15 AM 60.8 °F 55.4 °F 82% 29.55 in 10.0 mi East 11.5 mph 18.4 mph N/A   Overcast
1:35 AM 60.8 °F 55.4 °F 82% 29.54 in 10.0 mi East 10.4 mph 16.1 mph N/A   Overcast
1:55 AM 59.0 °F 53.6 °F 82% 29.52 in 10.0 mi East 6.9 mph - N/A   Overcast
2:15 AM 59.0 °F 53.6 °F 82% 29.51 in 10.0 mi East 8.1 mph - N/A   Overcast
2:35 AM 59.0 °F 53.6 °F 82% 29.51 in 10.0 mi East 9.2 mph - N/A   Overcast
2:55 AM 59.0 °F 53.6 °F 82% 29.51 in 10.0 mi East 11.5 mph - N/A   Overcast
3:15 AM 57.2 °F 53.6 °F 88% 29.52 in 10.0 mi ESE 8.1 mph - N/A   Overcast
3:35 AM 57.2 °F 53.6 °F 88% 29.52 in 10.0 mi ESE 4.6 mph - N/A   Overcast
3:55 AM 57.2 °F 53.6 °F 88% 29.51 in 10.0 mi ESE 6.9 mph - N/A   Overcast
4:15 AM 55.4 °F 53.6 °F 94% 29.50 in 10.0 mi East 10.4 mph - N/A   Overcast
4:35 AM 55.4 °F 53.6 °F 94% 29.49 in 10.0 mi East 10.4 mph - N/A   Overcast
4:55 AM 55.4 °F 51.8 °F 88% 29.49 in 7.0 mi East 9.2 mph - N/A   Overcast
5:15 AM 55.4 °F 51.8 °F 88% 29.48 in 10.0 mi ENE 5.8 mph - N/A   Overcast
5:35 AM 55.4 °F 51.8 °F 88% 29.48 in 10.0 mi ENE 8.1 mph - N/A   Overcast
5:55 AM 53.6 °F 51.8 °F 94% 29.48 in 10.0 mi East 5.8 mph - N/A   Overcast
6:15 AM 53.6 °F 51.8 °F 94% 29.48 in 10.0 mi East 5.8 mph - N/A   Overcast
6:35 AM 53.6 °F 51.8 °F 94% 29.48 in 10.0 mi ENE 5.8 mph - N/A   Overcast
6:55 AM 53.6 °F 51.8 °F 94% 29.48 in 5.0 mi East 5.8 mph - N/A   Overcast
7:15 AM 53.6 °F 51.8 °F 94% 29.48 in 3.0 mi East 5.8 mph - N/A   Overcast
7:35 AM 53.6 °F 51.8 °F 94% 29.48 in 4.0 mi East 5.8 mph - N/A   Overcast
7:55 AM 53.6 °F 51.8 °F 94% 29.47 in 3.0 mi East 3.5 mph - N/A   Overcast
8:15 AM 53.6 °F 51.8 °F 94% 29.47 in 4.0 mi East 4.6 mph - N/A   Overcast
8:35 AM 53.6 °F 51.8 °F 94% 29.47 in 4.0 mi ENE 3.5 mph - N/A   Overcast
8:55 AM 53.6 °F 51.8 °F 94% 29.47 in 5.0 mi ENE 3.5 mph - N/A   Overcast
9:15 AM 53.6 °F 51.8 °F 94% 29.47 in 7.0 mi ENE 3.5 mph - N/A   Overcast
9:35 AM 55.4 °F 53.6 °F 94% 29.47 in 5.0 mi ENE 4.6 mph - N/A   Overcast
9:55 AM 55.4 °F 53.6 °F 94% 29.46 in 7.0 mi ENE 4.6 mph - N/A   Overcast
10:15 AM 55.4 °F 53.6 °F 94% 29.45 in 7.0 mi ENE 3.5 mph - N/A   Overcast
10:55 AM 55.4 °F 53.6 °F 94% 29.44 in 7.0 mi ENE 4.6 mph - N/A   Overcast
11:15 AM 57.2 °F 53.6 °F 88% 29.44 in 10.0 mi ENE 4.6 mph - N/A   Overcast
11:35 AM 57.2 °F 53.6 °F 88% 29.44 in 10.0 mi East 5.8 mph - N/A   Overcast
11:55 AM 59.0 °F 55.4 °F 88% 29.44 in 10.0 mi East 4.6 mph - N/A   Overcast
12:15 PM 59.0 °F 55.4 °F 88% 29.44 in 10.0 mi East 4.6 mph - N/A   Overcast
12:35 PM 59.0 °F 55.4 °F 88% 29.44 in 10.0 mi East 4.6 mph - N/A   Overcast
12:55 PM 59.0 °F 55.4 °F 88% 29.44 in 10.0 mi ENE 3.5 mph - N/A   Overcast
1:35 PM 60.8 °F 57.2 °F 88% 29.43 in 7.0 mi Calm Calm - N/A   Mostly Cloudy
1:55 PM 60.8 °F 57.2 °F 88% 29.43 in 7.0 mi Calm Calm - N/A   Overcast
2:15 PM 60.8 °F 59.0 °F 94% 29.43 in 7.0 mi NNE 3.5 mph - N/A   Overcast
2:35 PM 60.8 °F 59.0 °F 94% 29.43 in 7.0 mi East 9.2 mph - N/A   Overcast
2:55 PM 60.8 °F 59.0 °F 94% 29.42 in 5.0 mi East 9.2 mph - N/A   Overcast
3:15 PM 60.8 °F 57.2 °F 88% 29.43 in 0.8 mi SE 5.8 mph - N/A   Overcast
3:35 PM 60.8 °F 59.0 °F 94% 29.42 in 4.0 mi SE 8.1 mph - N/A   Overcast
3:55 PM 60.8 °F 59.0 °F 94% 29.42 in 10.0 mi SSE 10.4 mph - N/A   Mostly Cloudy
4:15 PM 62.6 °F 59.0 °F 88% 29.43 in 10.0 mi SSE 15.0 mph - N/A   Mostly Cloudy
4:35 PM 62.6 °F 59.0 °F 88% 29.43 in 10.0 mi SSE 13.8 mph - N/A   Overcast
4:55 PM 62.6 °F 57.2 °F 82% 29.43 in 10.0 mi SSE 11.5 mph - N/A   Mostly Cloudy
5:15 PM 62.6 °F 55.4 °F 77% 29.43 in 10.0 mi South 13.8 mph - N/A   Mostly Cloudy
5:35 PM 62.6 °F 55.4 °F 77% 29.44 in 10.0 mi South 15.0 mph - N/A   Overcast
5:55 PM 64.4 °F 55.4 °F 73% 29.44 in 10.0 mi South 12.7 mph - N/A   Mostly Cloudy
6:15 PM 64.4 °F 55.4 °F 73% 29.44 in 10.0 mi South 15.0 mph - N/A   Scattered Clouds
6:35 PM 64.4 °F 55.4 °F 73% 29.44 in 10.0 mi SSW 9.2 mph - N/A   Scattered Clouds
6:55 PM 60.8 °F 55.4 °F 82% 29.45 in 1.5 mi South 9.2 mph - N/A   Overcast
7:15 PM 60.8 °F 55.4 °F 82% 29.45 in 3.0 mi SSW 8.1 mph - N/A   Overcast
7:35 PM 59.0 °F 55.4 °F 88% 29.45 in 10.0 mi South 8.1 mph - N/A   Overcast
7:55 PM 60.8 °F 55.4 °F 82% 29.46 in 10.0 mi SSE 6.9 mph - N/A   Overcast
8:15 PM 59.0 °F 55.4 °F 88% 29.47 in 10.0 mi South 11.5 mph - N/A   Overcast
8:35 PM 59.0 °F 55.4 °F 88% 29.47 in 10.0 mi SSE 8.1 mph - N/A   Overcast
8:55 PM 59.0 °F 55.4 °F 88% 29.47 in 10.0 mi SE 6.9 mph - N/A   Overcast
9:35 PM 59.0 °F 53.6 °F 82% 29.49 in 10.0 mi East 6.9 mph - N/A   Overcast
9:55 PM 59.0 °F 53.6 °F 82% 29.49 in 10.0 mi ESE 8.1 mph - N/A   Overcast
10:15 PM 59.0 °F 55.4 °F 88% 29.49 in 10.0 mi East 8.1 mph - N/A   Overcast
10:35 PM 59.0 °F 55.4 °F 88% 29.49 in 10.0 mi East 8.1 mph - N/A   Overcast
10:55 PM 59.0 °F 53.6 °F 82% 29.49 in 10.0 mi East 8.1 mph - N/A   Overcast
11:15 PM 59.0 °F 53.6 °F 82% 29.50 in 10.0 mi East 13.8 mph - N/A   Overcast
11:35 PM 57.2 °F 53.6 °F 88% 29.50 in 7.0 mi ENE 15.0 mph 19.6 mph N/A   Overcast
11:55 PM 55.4 °F 53.6 °F 94% 29.51 in 7.0 mi ENE 15.0 mph 20.7 mph N/A   Overcast